Wind_Speed
18 19 19 19 20 20 20 21 21 21 20 21 20 20 20 20 20 20 21 21 21 21 21 22 22 22 21 20 20 19 18 18 18 19 19 19 19 19
20 20 20 21 21 22 22 22 22 22 22 22 21 22 22 21 22 22 22 22 22 22 22 22 22 22 21 20 20 19 20 20 19 19 20 19 20 20
21 20 21 22 22 22 22 22 23 23 22 23 23 23 23 23 23 23 23 22 22 22 22 22 22 21 20 20 20 20 20 20 20 20 20 20 20 20
22 22 22 22 22 23 23 23 23 24 23 23 25 25 24 24 24 23 23 23 23 23 23 22 21 20 20 20 20 20 20 20 20 21 20 20 20 21
23 23 23 24 23 23 23 23 23 23 24 24 25 25 25 24 24 24 25 24 23 23 23 22 22 22 21 20 21 21 21 20 20 20 20 20 20 21
24 24 24 24 24 24 23 22 22 22 23 24 24 24 24 24 25 25 24 24 23 22 21 21 22 22 21 21 22 22 22 21 20 20 19 19 19 19
24 24 24 24 23 24 24 23 23 23 24 24 23 23 23 24 24 24 23 23 23 22 21 21 22 21 21 22 22 22 22 22 21 21 20 19 20 20
25 25 25 24 23 24 24 24 24 24 24 23 22 22 23 23 24 23 23 23 23 22 21 22 22 22 22 22 22 22 22 22 22 21 21 21 21 21
25 25 24 24 24 24 24 25 24 24 23 23 22 22 23 23 23 23 23 23 22 22 22 21 21 21 21 22 21 21 22 22 22 22 22 22 22 22
25 25 25 25 25 25 25 25 24 24 24 23 23 23 22 22 23 23 23 24 23 23 22 22 22 22 22 22 22 22 22 23 23 23 22 23 23 23
25 25 26 26 26 26 26 26 25 24 23 24 24 23 23 24 24 24 24 24 24 24 24 24 23 23 23 22 22 23 23 23 24 23 23 23 23 23
26 26 26 27 26 26 26 26 26 25 25 24 24 24 24 24 23 23 23 24 24 24 24 24 23 23 23 23 22 22 22 23 24 23 23 23 24 24
27 27 27 27 26 26 26 26 26 26 25 25 25 25 24 24 24 24 24 25 25 24 24 25 24 24 24 23 23 22 22 22 23 23 23 23 24 24
26 26 26 25 25 25 26 26 26 27 26 25 25 25 25 24 24 24 25 24 25 25 25 26 25 24 24 23 23 22 22 22 22 23 23 24 24 25
26 26 26 26 25 25 26 26 27 26 24 25 25 25 26 26 26 25 24 25 25 25 25 25 25 24 24 23 23 23 22 22 22 22 22 23 24 24
26 26 26 25 25 25 25 26 25 24 24 24 24 25 25 25 26 25 24 24 25 25 25 25 25 25 25 24 24 23 23 22 22 21 22 22 22 23
26 26 25 25 25 25 25 25 24 23 23 23 23 23 24 25 25 25 25 25 25 24 24 24 24 25 25 24 24 24 23 22 22 22 22 22 22 22
26 26 26 25 24 24 23 23 22 22 22 22 23 24 24 25 24 24 24 24 24 24 24 24 25 25 25 24 24 24 24 23 23 22 22 22 22 22
26 26 26 25 24 23 23 23 22 22 22 22 22 23 23 24 24 24 24 23 24 23 23 23 23 24 24 24 23 23 23 22 23 22 22 22 22 22
26 25 24 24 24 23 23 23 23 23 23 22 22 22 23 23 23 23 23 23 23 23 23 22 23 23 23 23 23 23 23 23 23 23 23 22 22 22
27 25 24 24 24 23 23 23 23 22 22 22 22 22 23 23 23 23 23 23 24 24 24 23 23 23 22 22 23 23 23 24 24 24 24 24 23 23
27 26 24 23 23 23 23 23 22 22 22 22 22 22 23 24 24 24 24 25 24 24 24 24 24 24 24 23 23 23 23 24 24 24 23 22 22 21
25 24 23 24 24 24 23 22 23 23 23 23 23 23 23 23 24 24 25 25 24 24 23 24 24 24 24 24 24 24 24 24 24 24 23 22 22 22
Wind_Direction
291 289 288 286 285 284 282 281 279 278 276 275 274 273 274 277 278 277 276 275 276 276 276 276 273 273 270 268 268 271 270 270 270 269 267 265 265 265
291 290 288 287 285 284 284 283 281 280 279 276 274 273 274 275 275 276 275 276 276 276 276 276 275 274 269 267 268 271 270 269 270 269 268 267 264 263
293 291 289 288 287 285 284 283 281 281 279 278 278 276 274 274 275 275 274 275 274 274 274 274 273 271 269 268 268 271 270 268 268 269 269 268 264 261
293 292 290 289 288 288 286 283 282 281 280 279 279 278 275 272 271 272 274 274 273 272 272 271 269 269 270 269 270 271 269 269 269 269 269 268 266 262
294 293 292 290 288 286 286 285 284 282 280 280 281 280 278 274 272 272 273 275 272 270 270 270 268 268 266 267 269 269 267 268 269 269 270 269 268 263
295 294 292 290 288 287 287 286 285 284 282 280 280 280 279 276 274 273 273 274 271 269 267 267 266 266 264 266 268 267 267 267 268 269 269 270 269 265
292 292 291 290 289 286 288 287 285 284 283 282 280 279 278 276 276 275 274 273 270 267 266 266 266 263 263 265 267 267 267 266 266 266 266 268 268 266
287 288 289 288 286 285 286 286 286 283 281 280 278 276 275 275 275 274 274 273 270 266 266 266 266 264 262 263 264 265 265 264 266 265 265 266 265 265
286 286 285 285 284 284 284 285 284 283 282 280 277 275 273 273 273 273 273 271 269 266 265 266 266 266 264 263 263 264 263 264 265 265 264 265 263 263
286 285 283 283 283 283 282 282 281 281 281 280 278 276 274 274 274 273 274 272 268 266 266 266 266 266 264 263 264 263 262 263 264 264 264 263 263 263
286 285 283 283 284 282 281 281 279 279 279 278 277 276 274 273 273 273 273 272 269 267 267 267 266 267 264 262 262 261 262 263 263 263 264 264 263 264
286 285 285 283 282 282 281 280 280 279 279 278 275 274 273 273 273 273 272 269 269 268 267 267 266 266 262 261 262 263 264 263 262 263 265 263 262 263
288 286 286 285 283 282 280 279 280 280 277 275 274 273 273 273 273 272 272 270 268 268 268 266 265 265 263 262 262 263 264 264 264 264 265 265 264 263
290 290 287 284 282 281 280 279 281 282 278 276 274 274 273 273 273 272 271 270 270 269 267 266 266 264 263 262 263 264 265 265 265 267 268 267 266 265
289 289 287 283 281 282 282 281 281 282 280 276 273 273 273 271 272 272 271 270 272 269 268 268 267 265 264 263 263 264 264 265 266 268 269 268 267 267
289 289 288 285 283 283 284 284 281 279 279 278 275 274 272 271 269 270 271 272 272 271 268 268 267 266 265 264 264 263 265 266 266 267 268 269 270 269
289 287 287 286 284 284 283 282 280 280 280 279 276 274 273 272 271 269 270 272 271 268 268 268 268 266 264 263 263 262 263 265 267 268 269 270 270 269
287 287 286 286 287 286 284 280 278 279 281 279 276 274 273 272 271 270 271 271 271 268 266 267 266 265 264 263 264 265 263 262 263 266 268 270 270 269
286 285 284 284 285 285 283 281 279 280 281 279 277 275 273 272 271 270 271 271 270 269 267 266 266 267 267 264 264 265 264 265 263 265 267 269 270 269
287 286 285 284 283 282 282 282 281 280 280 278 275 275 273 272 271 271 271 272 270 270 269 267 267 267 266 265 264 266 267 267 265 265 266 268 269 270
286 285 284 282 281 281 282 281 282 281 280 279 278 277 273 272 273 274 274 273 272 271 269 268 268 265 263 265 266 267 268 268 268 268 269 269 268 268
285 285 283 279 279 280 281 281 280 280 281 280 278 277 275 275 275 274 274 274 273 271 269 266 265 264 263 265 267 267 269 269 269 271 272 270 270 269
284 284 282 279 279 279 280 280 281 280 279 278 276 276 276 277 277 275 272 272 273 270 269 267 265 265 265 265 266 267 268 269 269 270 271 270 268 267
Height
5847 5846 5845 5845 5844 5844 5843 5843 5843 5842 5842 5842 5841 5842 5842 5842 5842 5842 5842 5842 5842 5842 5842 5843 5843 5843 5844 5845 5845 5845 5846 5846 5847 5847 5848 5848 5849 5849
5842 5841 5841 5840 5839 5838 5838 5837 5836 5836 5836 5835 5835 5835 5836 5836 5836 5836 5836 5836 5836 5836 5836 5837 5837 5837 5838 5839 5839 5840 5841 5841 5841 5842 5842 5842 5843 5843
5837 5836 5835 5834 5833 5833 5832 5831 5831 5830 5830 5829 5828 5829 5829 5829 5829 5829 5829 5829 5830 5830 5830 5830 5831 5831 5832 5833 5834 5834 5835 5835 5835 5836 5836 5836 5837 5837
5832 5831 5829 5828 5827 5826 5826 5825 5824 5824 5823 5823 5822 5821 5821 5822 5822 5822 5822 5823 5823 5823 5823 5824 5824 5825 5826 5827 5828 5828 5829 5829 5829 5830 5830 5830 5830 5831
5826 5825 5823 5822 5821 5820 5819 5818 5818 5817 5817 5816 5815 5814 5814 5814 5815 5815 5815 5815 5816 5816 5817 5817 5818 5819 5820 5821 5821 5822 5822 5823 5823 5823 5824 5824 5824 5824
5820 5819 5817 5816 5814 5813 5813 5812 5811 5810 5810 5809 5808 5808 5808 5808 5808 5808 5808 5808 5809 5809 5810 5811 5812 5812 5813 5814 5815 5815 5816 5816 5817 5817 5817 5818 5818 5818
5813 5812 5811 5809 5808 5807 5806 5805 5804 5803 5802 5802 5801 5801 5801 5801 5801 5801 5802 5802 5802 5802 5804 5805 5806 5807 5807 5807 5807 5808 5809 5809 5810 5810 5811 5812 5812 5812
5807 5806 5805 5803 5802 5801 5800 5799 5798 5797 5795 5795 5794 5794 5794 5794 5794 5794 5795 5795 5796 5797 5797 5798 5799 5800 5800 5801 5801 5801 5802 5803 5803 5804 5804 5805 5805 5806
5800 5799 5798 5796 5795 5794 5793 5792 5791 5790 5789 5788 5787 5787 5787 5787 5787 5787 5788 5788 5789 5790 5790 5792 5792 5793 5793 5794 5794 5795 5795 5796 5796 5797 5797 5798 5799 5799
5793 5792 5790 5789 5788 5787 5786 5785 5784 5783 5782 5781 5780 5780 5780 5780 5780 5780 5781 5781 5782 5783 5783 5785 5785 5786 5787 5787 5787 5788 5788 5789 5789 5790 5790 5791 5792 5793
5786 5784 5783 5782 5781 5780 5779 5777 5776 5775 5774 5773 5773 5773 5773 5773 5773 5773 5774 5775 5776 5776 5777 5778 5778 5778 5779 5780 5780 5781 5781 5782 5782 5782 5783 5784 5785 5785
5778 5777 5776 5774 5773 5772 5771 5770 5769 5768 5767 5766 5766 5766 5765 5766 5766 5766 5767 5768 5768 5769 5769 5770 5771 5771 5772 5772 5773 5773 5774 5774 5775 5775 5776 5776 5777 5778
5770 5769 5768 5766 5766 5764 5763 5763 5762 5761 5759 5759 5759 5759 5759 5759 5759 5760 5760 5760 5761 5762 5762 5762 5763 5763 5764 5765 5765 5766 5766 5767 5767 5768 5768 5769 5769 5770
5763 5761 5760 5759 5758 5757 5756 5755 5754 5753 5752 5752 5752 5752 5752 5752 5752 5752 5753 5753 5753 5754 5754 5754 5755 5756 5757 5757 5758 5758 5759 5759 5760 5761 5761 5761 5761 5762
5755 5754 5752 5751 5750 5750 5748 5747 5746 5745 5744 5744 5744 5744 5744 5744 5744 5745 5745 5746 5746 5746 5746 5747 5747 5748 5749 5750 5750 5751 5751 5752 5752 5753 5753 5754 5754 5754
5747 5746 5745 5743 5742 5742 5740 5739 5738 5737 5737 5736 5736 5736 5736 5736 5737 5737 5738 5738 5739 5739 5739 5739 5740 5740 5741 5742 5743 5743 5744 5745 5745 5745 5746 5746 5746 5746
5739 5738 5737 5736 5735 5733 5732 5731 5730 5729 5729 5728 5728 5728 5728 5729 5729 5730 5730 5730 5731 5731 5732 5732 5732 5733 5733 5734 5735 5736 5736 5737 5738 5738 5739 5739 5739 5739
5732 5731 5730 5728 5727 5725 5724 5723 5722 5722 5721 5721 5721 5721 5721 5721 5722 5722 5723 5723 5723 5724 5724 5725 5725 5726 5726 5727 5728 5728 5729 5730 5730 5731 5731 5732 5732 5732
5725 5723 5722 5720 5718 5718 5717 5716 5715 5715 5714 5714 5713 5713 5713 5714 5714 5715 5716 5716 5716 5716 5717 5718 5718 5718 5718 5719 5721 5721 5722 5722 5723 5724 5724 5725 5725 5725
5717 5716 5714 5713 5712 5711 5710 5709 5708 5708 5707 5707 5707 5706 5707 5707 5707 5708 5708 5708 5709 5709 5710 5710 5710 5710 5711 5712 5713 5714 5714 5715 5716 5716 5717 5717 5718 5718
5709 5708 5707 5706 5704 5704 5703 5702 5702 5701 5700 5700 5700 5700 5700 5700 5700 5701 5701 5701 5701 5702 5702 5703 5703 5703 5704 5705 5706 5707 5708 5708 5708 5708 5709 5709 5710 5710
5702 5701 5699 5698 5698 5697 5696 5695 5695 5694 5693 5693 5693 5693 5693 5693 5693 5693 5693 5693 5694 5694 5694 5695 5695 5696 5697 5698 5699 5699 5700 5700 5701 5701 5701 5702 5702 5702
5694 5693 5692 5691 5691 5690 5689 5688 5688 5687 5686 5686 5686 5686 5685 5685 5685 5685 5686 5686 5686 5686 5686 5687 5687 5688 5689 5690 5691 5691 5692 5692 5693 5693 5694 5694 5694 5695